This is the latest recevied weather packets stored in our database for station/object XE2OR-10. If no packets are shown the sender has not sent any weather packets the latest 10 day(s).
| Time | Temp. | Humidity | Pressure | Rain* | Wind** | Luminosity | Snow |
|---|---|---|---|---|---|---|---|
| 1778016232 | 35° C | 61% | 1009.3 hPa | 0 mm | - | 432 W/m² | - |
| 1778015928 | 34.44° C | 61% | 1009.6 hPa | 0 mm | - | 402 W/m² | - |
| 1778015632 | 34.44° C | 61% | 1009.6 hPa | 0 mm | - | 605 W/m² | - |
| 1778015329 | 33.89° C | 61% | 1009.7 hPa | 0 mm | - | 566 W/m² | - |
| 1778015029 | 34.44° C | 61% | 1009.8 hPa | 0 mm | - | 547 W/m² | - |
| 1778014729 | 33.89° C | 62% | 1010 hPa | 0 mm | - | 587 W/m² | - |
| 1778014432 | 35° C | 61% | 1009.9 hPa | 0 mm | - | 665 W/m² | - |
| 1778014129 | 35° C | 59% | 1009.8 hPa | 0 mm | - | 671 W/m² | - |
| 1778013832 | 34.44° C | 59% | 1009.9 hPa | 0 mm | - | 704 W/m² | - |
| 1778013529 | 33.89° C | 61% | 1010 hPa | 0 mm | - | 715 W/m² | - |
| 1778013229 | 33.89° C | 60% | 1010.3 hPa | 0 mm | - | 546 W/m² | - |
| 1778012929 | 34.44° C | 60% | 1010.3 hPa | 0 mm | - | 582 W/m² | - |
| 1778012633 | 34.44° C | 58% | 1010.1 hPa | 0 mm | - | 672 W/m² | - |
| 1778012329 | 34.44° C | 61% | 1010.4 hPa | 0 mm | - | 610 W/m² | - |
| 1778012033 | 34.44° C | 62% | 1010.5 hPa | 0 mm | - | 743 W/m² | - |
| 1778011729 | 34.44° C | 61% | 1010.6 hPa | 0 mm | - | 674 W/m² | - |
| 1778011429 | 33.89° C | 63% | 1010.6 hPa | 0 mm | - | 683 W/m² | - |
| 1778011129 | 34.44° C | 62% | 1010.6 hPa | 0 mm | - | 733 W/m² | - |
| 1778010833 | 34.44° C | 62% | 1010.7 hPa | 0 mm | - | 729 W/m² | - |
| 1778010529 | 33.33° C | 65% | 1010.6 hPa | 0 mm | - | 712 W/m² | - |
| 1778010233 | 33.33° C | 63% | 1010.7 hPa | 0 mm | - | 788 W/m² | - |
| 1778009929 | 34.44° C | 63% | 1010.9 hPa | 0 mm | - | 711 W/m² | - |
| 1778009629 | 33.89° C | 62% | 1010.8 hPa | 0 mm | - | 513 W/m² | - |
| 1778009329 | 33.89° C | 63% | 1010.9 hPa | 0 mm | - | 753 W/m² | - |
| 1778009033 | 33.33° C | 64% | 1010.8 hPa | 0 mm | - | 766 W/m² | - |
* Rain latest hour (hover to see other rain measurements)
** Current wind speed in m/s (hover to see current wind gust speed)